Location: Waco, TX
(31.5480°N, 97.1670°W)
Time: 12:19:32
(UTC-05:00)

ISS - Pass Details

Date: 08 May 2021
Orbit: 417 x 422 km, 51.6° (Epoch: 15 May)

Event Time Altitude Azimuth Distance (km) Brightness Sun altitude
Rises 01:52:01 0° 275° (W) 2,355 - -40.9°
Reaches altitude 10° 01:55:45 10° 318° (NW) 1,496 - -40.7°
Maximum altitude 01:56:26 11° 330° (NNW) 1,469 - -40.7°
Drops below altitude 10° 01:57:08 10° 342° (NNW) 1,498 - -40.7°
Sets 02:00:53 0° 25° (NNE) 2,366 - -40.5°
